Wind_Speed
16 16 14 16 10 5 4 4 6 6 12 10 11 11 10 10 9 8 9 6 8 10 8 9 6 6 5 4 3 2 2 5 7 10 10 11 13 17 19 20 19 17 17 16 16 16 15 16 15
17 18 15 17 12 5 3 5 7 13 15 7 12 12 12 14 14 13 13 14 11 10 10 10 8 9 7 6 5 4 1 2 5 7 9 11 13 16 19 20 20 19 18 17 18 17 17 16 17
20 20 16 16 14 7 5 1 3 6 11 8 15 18 20 14 12 12 14 17 15 13 11 10 12 11 11 10 7 4 3 3 5 6 9 12 15 17 19 20 19 19 19 19 18 18 18 18 18
20 21 17 17 14 6 12 4 7 2 7 12 18 20 16 17 15 18 14 14 15 14 11 11 12 13 13 12 10 6 6 5 4 5 7 11 13 16 19 20 20 19 19 18 18 18 18 19 17
23 24 19 19 9 11 9 7 3 7 4 10 19 24 26 22 16 12 16 13 11 7 6 8 12 12 13 12 10 8 8 7 6 6 7 10 14 16 20 20 19 19 19 18 19 18 17 17 17
23 26 22 21 15 13 8 8 5 3 9 11 18 22 27 14 18 10 11 12 12 10 6 4 8 11 12 12 11 10 10 10 9 9 9 13 17 18 17 18 19 20 20 19 19 18 17 15 15
18 27 24 22 18 11 12 17 12 7 4 11 18 22 26 18 16 15 10 13 11 10 8 5 6 9 12 12 12 12 12 11 11 12 14 18 19 19 18 20 21 21 18 19 18 17 15 13 14
13 24 28 21 16 13 16 20 20 12 9 14 20 21 24 13 10 16 17 18 18 11 7 8 9 9 11 13 14 14 14 14 12 13 16 17 21 23 22 22 22 22 19 18 19 18 14 14 11
10 18 30 25 20 20 16 19 23 28 24 24 24 22 19 21 14 18 20 19 16 19 16 14 14 13 13 13 14 15 15 16 15 16 18 23 18 19 23 21 22 22 18 17 17 17 14 13 10
9 12 25 30 26 23 23 24 29 30 32 29 23 13 18 21 24 23 21 28 27 26 27 23 18 18 17 18 18 18 19 19 19 20 22 18 17 17 18 19 18 19 18 18 18 17 15 13 11
10 14 24 34 34 32 29 29 31 32 31 33 22 15 18 20 23 22 23 22 25 28 29 27 27 24 22 22 22 22 22 20 21 24 24 23 19 18 17 18 18 19 19 20 19 17 16 14 12
10 17 21 28 29 33 32 33 30 24 30 29 26 21 21 23 24 17 14 22 25 17 33 30 26 20 23 23 23 23 23 24 26 27 25 22 18 19 18 19 19 18 20 22 21 19 16 14 13
8 9 9 18 20 20 20 22 26 28 30 27 31 25 24 27 25 20 15 12 15 22 24 14 9 12 16 18 21 23 24 24 23 22 23 22 21 21 19 20 20 18 18 19 20 20 19 14 14
8 8 8 10 14 15 17 18 17 22 25 23 25 27 31 29 29 24 20 14 14 17 7 14 17 14 11 11 15 19 18 20 20 19 19 18 19 21 21 21 21 20 15 17 20 19 21 22 18
7 6 7 13 16 18 20 17 16 27 28 26 25 25 29 31 32 31 27 23 18 16 13 17 11 8 14 15 15 16 16 16 17 17 18 19 20 22 22 22 22 20 16 16 19 19 20 22 22
10 10 14 16 18 20 19 16 22 27 26 26 27 27 31 33 31 33 32 31 26 20 16 13 18 17 14 14 16 17 16 16 16 17 18 18 18 19 21 21 21 20 20 19 21 21 21 22 21
19 20 22 24 23 24 24 26 24 28 29 29 30 29 29 31 30 32 35 33 29 25 18 14 15 17 18 19 17 24 24 19 19 21 22 22 21 22 23 24 24 24 22 22 24 25 26 23 21
26 27 26 24 27 30 30 29 31 29 32 34 33 32 31 32 29 29 33 33 32 27 18 13 19 22 20 19 22 25 27 24 24 25 26 26 26 26 27 28 28 29 30 28 30 28 28 27 27
28 29 29 28 26 33 33 33 35 34 36 34 33 33 32 34 30 30 31 34 35 31 30 24 21 25 19 24 26 30 32 31 27 25 28 28 28 29 29 28 30 32 33 33 33 32 31 31 29
27 28 27 28 28 32 33 37 36 34 35 37 37 36 37 36 31 30 32 35 35 35 35 30 26 29 27 26 29 34 35 35 31 29 32 32 29 29 28 28 30 32 34 32 32 33 34 34 32
28 28 28 30 28 31 33 34 33 33 36 37 40 41 42 44 39 39 35 38 37 37 37 35 36 37 37 37 36 32 38 39 36 33 33 31 30 31 28 30 33 35 34 32 34 34 32 33 33
28 29 32 32 33 33 31 36 30 28 31 36 40 43 47 49 50 46 41 37 36 37 37 35 41 43 41 44 45 36 38 42 32 30 30 29 33 36 30 31 33 34 35 35 39 33 32 28 38
31 31 34 36 37 35 35 36 35 28 25 28 35 39 50 53 51 53 52 49 42 41 42 45 44 48 41 35 41 41 38 39 39 35 33 32 36 37 34 35 33 33 35 35 39 41 38 35 33
32 32 34 36 36 37 38 38 38 34 32 29 28 28 38 46 55 59 59 55 53 47 44 47 47 50 49 50 46 46 40 39 40 40 38 38 37 37 37 37 37 38 37 36 35 34 29 30 27
33 33 35 37 36 38 38 41 39 37 36 35 34 32 33 39 47 53 50 49 49 48 52 53 54 54 57 57 56 52 46 43 43 46 44 43 42 41 40 40 41 43 42 39 37 32 31 30 31
34 33 35 40 40 39 37 42 40 39 37 37 40 40 39 39 45 53 56 58 54 55 55 55 60 64 63 63 62 60 54 46 49 49 47 45 45 43 43 43 42 43 44 42 39 37 34 31 34
35 35 35 39 42 43 43 42 41 39 38 39 41 42 44 45 47 54 56 60 66 61 56 60 69 72 59 64 65 66 59 53 53 52 50 47 43 43 44 44 44 43 43 44 42 41 40 37 36
36 37 37 38 43 46 46 45 44 42 39 41 39 43 44 45 49 54 56 54 56 67 68 55 39 40 48 65 61 62 70 58 54 55 52 50 46 43 42 44 45 45 44 43 42 41 40 38 37
40 40 41 42 45 47 47 46 46 43 41 43 42 42 43 47 47 49 54 54 55 56 62 51 57 48 44 49 69 68 70 65 57 57 55 56 51 47 44 44 47 45 43 39 39 39 37 38 39
44 43 43 45 48 49 50 50 46 44 44 44 43 42 42 42 45 48 49 45 43 43 45 43 40 47 45 45 47 69 83 76 61 64 59 61 56 52 53 49 45 43 40 38 38 41 42 43 41
Wind_Direction
191 179 172 169 198 160 300 286 112 68 65 48 45 15 359 342 347 353 338 322 305 289 258 247 248 254 247 228 254 288 33 21 3 353 352 351 344 342 342 339 334 328 327 330 331 328 328 327 325
191 177 175 195 204 145 120 248 64 62 40 15 25 6 344 347 346 331 323 317 314 304 268 251 244 242 237 231 227 268 293 354 347 340 335 328 328 334 337 336 331 327 324 323 322 320 321 323 323
189 176 179 192 198 200 187 158 144 99 21 31 21 15 346 314 308 314 308 316 318 301 279 250 251 247 235 218 209 234 267 292 308 322 318 316 325 331 331 329 326 321 320 320 317 317 319 321 321
184 177 181 179 189 194 194 212 232 283 51 1 345 342 339 311 296 300 307 322 324 307 275 251 235 235 234 222 204 205 233 260 279 299 307 314 320 325 323 322 320 318 318 317 316 316 320 319 321
185 177 178 184 153 180 211 233 316 340 347 358 338 331 326 329 287 296 297 294 329 330 294 247 239 236 230 221 217 210 231 254 269 282 293 304 309 316 319 320 322 321 320 319 317 316 319 323 320
190 181 181 183 189 195 232 176 176 287 329 347 320 313 311 304 312 299 294 303 316 332 354 321 259 241 232 224 223 229 237 249 258 273 286 298 306 315 310 320 324 323 320 316 313 318 318 318 317
191 188 183 183 197 208 216 229 219 197 317 308 290 297 297 305 294 285 310 300 310 318 323 312 280 258 241 233 235 240 244 249 262 275 291 305 314 315 313 315 318 320 324 321 317 314 319 321 322
189 192 187 181 195 206 218 242 236 230 236 257 272 286 295 302 268 292 303 301 283 284 282 285 274 265 254 249 249 247 247 247 258 275 292 307 306 311 309 308 318 314 316 318 320 316 317 313 313
185 190 192 186 202 213 213 234 251 269 272 262 263 284 300 304 275 289 296 290 277 273 275 270 269 263 262 267 268 262 262 260 267 280 293 300 312 303 312 301 303 304 305 309 312 310 310 304 306
200 186 195 197 206 218 226 236 255 265 273 276 269 280 300 307 300 298 296 286 282 272 274 264 263 260 255 252 253 259 264 267 271 282 286 293 292 306 303 309 294 291 292 297 300 303 300 294 293
201 189 201 203 212 224 230 244 255 272 294 296 277 285 294 293 298 311 310 289 302 310 278 274 269 262 252 245 249 250 255 262 267 272 280 285 286 285 293 309 299 283 281 288 292 296 290 286 288
206 212 217 220 231 237 241 247 262 266 298 296 292 296 295 294 299 312 305 294 300 331 317 290 265 242 244 241 245 251 259 262 265 271 275 282 280 284 287 302 298 289 280 285 288 291 277 274 284
229 234 240 243 258 257 267 270 270 266 287 291 285 294 293 292 296 305 309 310 301 311 311 335 264 267 254 254 251 255 259 266 270 272 274 274 278 278 288 294 294 287 281 282 286 291 287 275 281
239 239 233 248 262 269 266 256 257 270 268 273 280 285 289 294 296 302 306 307 312 332 325 329 281 259 271 263 258 261 266 268 272 270 271 277 279 282 289 290 290 291 277 282 282 284 284 289 287
199 213 210 225 230 230 238 248 254 253 265 272 273 279 281 287 295 298 303 311 315 317 304 329 210 276 285 289 263 254 260 267 273 279 282 280 281 281 282 285 285 283 282 276 276 276 270 272 275
246 231 235 238 245 254 266 251 246 255 264 267 266 268 274 281 288 295 298 303 303 305 303 291 294 267 281 282 281 271 271 270 274 274 277 278 280 282 285 285 283 284 282 282 276 275 268 264 264
254 251 248 257 255 256 258 266 254 255 260 262 264 263 267 275 282 288 289 292 295 299 300 284 270 258 274 284 273 284 279 279 278 279 280 282 282 282 282 285 286 285 285 278 279 276 275 267 264
266 269 267 261 270 269 272 271 270 255 262 267 266 268 271 268 272 277 284 288 290 293 294 283 260 271 269 275 282 279 277 276 276 278 279 280 279 277 275 277 279 281 280 279 275 275 276 276 272
271 272 274 273 260 272 273 271 271 274 272 263 264 258 266 265 271 272 278 282 284 286 287 282 271 271 282 280 268 270 277 278 275 273 271 271 271 271 272 273 275 278 275 274 279 279 278 274 269
272 274 275 271 269 269 268 265 265 268 270 272 272 271 270 268 262 272 279 280 284 285 285 282 279 290 286 278 275 265 263 267 268 267 267 268 272 276 279 281 276 275 276 278 280 282 279 275 271
278 280 277 278 270 272 275 273 272 267 268 264 271 274 273 273 269 270 261 259 261 264 268 273 280 285 291 291 281 280 274 268 260 261 269 273 271 269 271 273 276 278 279 282 278 274 274 276 272
276 281 280 278 277 277 271 277 272 268 269 267 260 263 269 275 277 273 269 263 258 263 265 264 276 275 274 274 269 266 267 264 261 268 271 270 276 266 261 266 267 274 283 285 287 286 287 302 282
278 275 277 280 281 282 281 282 285 280 271 264 264 264 257 261 268 276 276 269 262 261 258 259 259 266 254 255 278 277 274 275 279 271 269 263 270 279 289 285 286 286 286 291 299 316 320 309 330
280 281 280 279 276 276 282 284 284 286 286 277 270 271 267 264 262 263 270 272 268 259 256 262 266 269 271 274 276 277 280 275 270 268 268 269 266 270 276 278 279 278 280 285 292 301 306 302 306
278 278 277 273 274 282 283 282 285 288 289 291 285 274 269 266 264 261 262 262 268 259 261 265 266 267 270 268 270 270 273 274 270 267 266 267 268 271 273 275 278 280 283 287 289 291 292 298 301
279 279 275 276 279 279 277 280 284 286 288 287 286 283 279 268 264 261 263 259 263 265 266 263 262 261 259 264 267 267 268 268 271 272 269 267 270 273 275 275 276 280 285 287 292 295 296 298 296
276 275 274 275 279 282 284 284 283 284 286 282 280 280 279 275 265 266 268 265 262 264 262 264 256 259 239 254 260 263 262 260 264 268 268 267 270 274 275 276 278 280 283 288 291 292 293 292 293
274 276 276 277 281 283 286 286 287 288 286 283 285 288 286 277 282 277 273 273 278 265 254 250 246 242 235 249 253 254 257 255 255 261 262 265 267 271 275 273 275 279 282 283 287 288 291 294 294
280 281 282 284 283 285 285 285 285 287 285 285 284 282 280 281 282 280 279 281 279 279 279 290 287 267 300 271 254 255 258 251 245 251 255 257 262 265 266 271 276 274 276 279 283 286 287 289 294
277 278 279 280 283 281 284 288 287 288 285 286 285 286 284 284 284 286 287 285 282 281 277 275 280 291 291 285 286 264 253 252 244 247 250 253 257 263 265 266 269 272 272 275 279 287 291 294 295
Height
5911 5914 5916 5917 5919 5919 5917 5917 5918 5920 5919 5919 5919 5919 5921 5921 5922 5924 5922 5922 5922 5922 5921 5922 5922 5922 5923 5923 5925 5926 5926 5928 5929 5929 5929 5928 5928 5927 5926 5925 5924 5923 5921 5920 5919 5917 5915 5913 5912
5910 5913 5916 5917 5919 5920 5918 5916 5918 5916 5918 5920 5919 5921 5921 5919 5920 5921 5921 5921 5921 5921 5922 5922 5921 5922 5922 5923 5925 5926 5927 5928 5929 5929 5930 5929 5928 5927 5926 5925 5923 5922 5921 5920 5919 5917 5915 5911 5910
5909 5912 5916 5916 5918 5919 5920 5916 5915 5914 5916 5920 5921 5920 5922 5923 5923 5922 5922 5920 5919 5920 5920 5919 5921 5921 5922 5922 5924 5927 5929 5929 5929 5929 5930 5929 5928 5927 5926 5924 5923 5922 5921 5919 5918 5916 5914 5911 5908
5908 5912 5915 5917 5918 5920 5915 5914 5914 5913 5915 5919 5920 5922 5923 5923 5924 5923 5922 5920 5919 5918 5917 5917 5917 5918 5920 5922 5923 5925 5928 5929 5929 5929 5929 5930 5929 5927 5925 5924 5922 5921 5920 5918 5916 5915 5913 5909 5907
5907 5910 5914 5916 5918 5916 5914 5915 5915 5913 5914 5918 5920 5921 5921 5920 5921 5921 5921 5919 5918 5916 5915 5915 5917 5918 5919 5921 5924 5925 5927 5928 5928 5929 5928 5928 5927 5926 5924 5923 5921 5919 5918 5916 5915 5913 5911 5908 5905
5907 5910 5913 5915 5915 5915 5915 5914 5912 5912 5913 5916 5919 5919 5919 5920 5920 5920 5919 5918 5918 5916 5915 5916 5917 5918 5920 5921 5923 5925 5926 5926 5927 5928 5928 5928 5927 5925 5923 5921 5919 5917 5916 5914 5912 5912 5910 5907 5904
5907 5909 5912 5913 5913 5915 5914 5912 5910 5910 5912 5915 5916 5917 5917 5918 5918 5918 5918 5918 5918 5917 5916 5917 5917 5918 5920 5921 5922 5924 5924 5924 5925 5926 5927 5926 5926 5924 5921 5920 5918 5916 5914 5913 5910 5908 5907 5906 5904
5906 5909 5910 5912 5911 5913 5913 5910 5909 5909 5910 5912 5912 5913 5914 5916 5917 5917 5916 5916 5916 5915 5914 5915 5916 5917 5917 5919 5920 5921 5921 5922 5923 5924 5924 5924 5923 5922 5920 5918 5917 5915 5912 5910 5908 5906 5904 5903 5902
5905 5907 5909 5910 5910 5911 5911 5909 5908 5906 5909 5909 5911 5913 5914 5913 5914 5914 5914 5913 5913 5914 5913 5913 5914 5915 5916 5918 5919 5920 5921 5921 5921 5921 5921 5920 5920 5918 5916 5914 5914 5912 5910 5908 5906 5904 5901 5900 5900
5904 5906 5907 5908 5907 5908 5909 5908 5906 5907 5908 5908 5909 5910 5909 5910 5910 5910 5910 5910 5910 5912 5911 5910 5910 5911 5912 5913 5915 5917 5918 5919 5919 5919 5918 5916 5916 5915 5913 5911 5909 5908 5907 5905 5903 5901 5899 5897 5897
5902 5903 5902 5905 5904 5904 5906 5906 5906 5904 5905 5904 5904 5906 5907 5909 5908 5908 5908 5908 5909 5905 5907 5909 5908 5907 5907 5908 5910 5911 5913 5915 5915 5915 5914 5913 5912 5911 5910 5909 5906 5904 5903 5901 5899 5898 5896 5894 5895
5900 5901 5901 5901 5901 5902 5903 5905 5905 5906 5903 5901 5901 5902 5902 5903 5905 5907 5907 5908 5908 5903 5902 5900 5902 5902 5904 5903 5905 5908 5910 5910 5910 5910 5910 5909 5908 5907 5906 5905 5903 5901 5899 5897 5895 5894 5893 5891 5891
5898 5900 5901 5901 5902 5902 5902 5903 5904 5903 5902 5899 5897 5896 5896 5897 5900 5903 5905 5905 5904 5902 5901 5896 5900 5903 5901 5901 5902 5904 5905 5905 5906 5906 5906 5905 5904 5902 5901 5900 5899 5897 5895 5893 5891 5889 5889 5888 5888
5896 5898 5899 5900 5901 5901 5901 5900 5900 5902 5897 5895 5893 5894 5888 5890 5893 5897 5900 5900 5900 5899 5899 5898 5898 5899 5899 5898 5897 5899 5900 5901 5902 5902 5901 5900 5899 5898 5897 5896 5894 5893 5891 5889 5887 5886 5885 5883 5884
5895 5896 5896 5894 5895 5895 5894 5896 5897 5893 5891 5890 5889 5889 5886 5885 5886 5889 5893 5894 5895 5896 5897 5896 5896 5897 5897 5895 5893 5895 5897 5898 5898 5898 5898 5896 5895 5893 5891 5890 5890 5888 5886 5885 5883 5882 5881 5880 5880
5892 5894 5893 5893 5892 5890 5890 5892 5889 5885 5886 5886 5885 5885 5882 5881 5883 5882 5883 5887 5889 5892 5892 5893 5894 5892 5892 5891 5891 5890 5893 5894 5893 5894 5894 5893 5890 5889 5887 5885 5884 5883 5881 5880 5878 5877 5877 5875 5876
5887 5888 5888 5887 5887 5886 5887 5886 5885 5880 5878 5879 5880 5880 5879 5877 5878 5880 5881 5882 5884 5887 5889 5890 5891 5889 5886 5884 5885 5887 5889 5888 5887 5887 5887 5885 5884 5883 5882 5881 5879 5879 5877 5875 5874 5871 5870 5870 5871
5881 5881 5882 5883 5881 5879 5879 5879 5877 5876 5875 5873 5875 5876 5876 5874 5876 5876 5876 5878 5880 5882 5885 5885 5886 5884 5880 5878 5878 5881 5883 5882 5880 5880 5879 5877 5876 5876 5876 5876 5874 5873 5871 5869 5868 5868 5868 5867 5867
5874 5874 5874 5875 5875 5871 5872 5871 5869 5870 5869 5870 5868 5871 5871 5868 5869 5871 5872 5872 5872 5874 5876 5878 5878 5877 5874 5873 5874 5874 5873 5873 5873 5872 5871 5869 5868 5869 5869 5868 5867 5864 5862 5862 5864 5864 5860 5859 5859
5867 5867 5867 5866 5866 5864 5864 5862 5862 5861 5861 5861 5862 5862 5862 5862 5862 5865 5866 5867 5865 5865 5867 5869 5871 5868 5868 5869 5870 5869 5868 5866 5864 5862 5861 5861 5861 5861 5861 5862 5859 5857 5856 5859 5857 5856 5854 5853 5852
5861 5861 5860 5858 5860 5858 5857 5856 5855 5854 5853 5854 5853 5853 5852 5852 5855 5856 5854 5856 5855 5855 5855 5857 5858 5858 5859 5859 5858 5859 5860 5857 5852 5851 5853 5854 5853 5853 5853 5852 5852 5849 5850 5852 5850 5846 5844 5844 5844
5855 5854 5852 5851 5851 5851 5851 5848 5849 5849 5846 5845 5848 5846 5844 5844 5844 5845 5846 5844 5843 5845 5844 5844 5848 5847 5847 5847 5848 5847 5847 5839 5836 5842 5844 5843 5843 5840 5841 5844 5842 5842 5843 5845 5844 5840 5838 5840 5837
5848 5848 5845 5844 5843 5843 5842 5840 5838 5841 5839 5838 5838 5839 5838 5835 5836 5834 5834 5836 5835 5835 5832 5833 5834 5833 5829 5825 5831 5834 5833 5834 5836 5835 5835 5838 5835 5830 5834 5837 5837 5835 5835 5837 5837 5836 5836 5834 5833
5841 5841 5838 5836 5835 5832 5833 5832 5828 5830 5829 5829 5830 5830 5829 5827 5826 5826 5825 5825 5824 5823 5824 5825 5826 5824 5822 5821 5823 5824 5822 5825 5827 5828 5829 5828 5828 5828 5829 5829 5829 5829 5829 5831 5832 5831 5831 5831 5830
5834 5832 5830 5827 5826 5825 5823 5821 5821 5819 5819 5819 5818 5818 5819 5817 5816 5815 5815 5815 5813 5812 5812 5811 5811 5811 5811 5813 5811 5811 5813 5813 5817 5818 5819 5820 5820 5820 5820 5820 5821 5820 5820 5822 5824 5825 5825 5824 5822
5825 5824 5821 5816 5816 5816 5815 5811 5811 5810 5810 5809 5806 5805 5807 5808 5806 5804 5803 5806 5807 5804 5799 5801 5798 5795 5796 5799 5799 5799 5801 5802 5804 5806 5808 5809 5811 5812 5811 5811 5811 5811 5811 5812 5813 5813 5815 5816 5814
5816 5815 5814 5809 5807 5804 5804 5803 5803 5801 5800 5798 5796 5794 5794 5795 5794 5792 5792 5792 5790 5788 5788 5788 5786 5785 5778 5783 5787 5789 5789 5790 5792 5795 5797 5798 5800 5801 5800 5800 5799 5800 5800 5801 5803 5804 5804 5807 5808
5807 5806 5803 5801 5797 5794 5792 5791 5791 5791 5789 5786 5785 5783 5781 5782 5780 5778 5776 5776 5775 5770 5773 5778 5773 5768 5761 5770 5772 5774 5775 5778 5780 5783 5785 5787 5788 5788 5789 5788 5788 5789 5789 5790 5793 5795 5795 5796 5797
5793 5793 5791 5790 5788 5785 5783 5784 5782 5782 5780 5777 5776 5775 5773 5771 5769 5767 5765 5765 5764 5761 5758 5762 5759 5757 5755 5755 5756 5760 5763 5765 5766 5769 5772 5774 5776 5776 5776 5777 5777 5777 5779 5781 5781 5783 5784 5785 5786
5784 5783 5783 5780 5778 5774 5772 5773 5773 5772 5769 5766 5764 5763 5761 5761 5759 5756 5752 5752 5749 5750 5752 5750 5747 5743 5747 5747 5741 5743 5746 5751 5754 5756 5757 5760 5761 5763 5766 5764 5766 5765 5767 5770 5771 5773 5774 5775 5775